Date String (YYYY-MM-DD hh:mm:ss) UTC,Instrument flags,Ambient pressure (hPa),Sample flow (lpm),Bypass flow (lpm),Sample temperature (°C),Ambient temperature (°C),ASC tube jacket temperature (°C),LED temperature (°C),Box temperature (°C),Sample RH (%),Span deviation,Mass concentration (μg/m³),Mass concentration (μg/m³),Mass concentration (μg/m³)
DateTimeUTC,F1_M11,P_M11,Q1_M11,Q2_M11,T1_M11,T2_M11,T3_M11,T4_M11,T5_M11,U1_M11,ZSPAN_M11,X0_M11,X2_M11,X1_M11
2021-12-02 13:00:00,,0828.3,5.01,0.00,29.3,28.3,00.0,38.3,31.0,08.1,0000.0,0004.47,0001.22,0000.35
2021-12-02 13:01:00,,0828.3,5.00,0.00,29.3,28.3,00.0,38.2,31.0,08.0,0000.0,0005.79,0001.19,0000.34
2021-12-02 13:02:00,,0828.3,5.01,0.00,29.3,28.3,00.0,38.3,31.0,07.9,0000.0,0006.38,0001.17,0000.34
2021-12-02 13:03:00,,0828.3,4.99,0.00,29.3,28.3,00.0,38.2,31.0,07.9,0000.0,0006.44,0001.07,0000.34
2021-12-02 13:04:00,,0828.3,5.01,0.00,29.2,28.3,00.0,38.2,31.0,07.9,0000.0,0006.31,0001.04,0000.34
2021-12-02 13:05:00,,0828.2,4.99,0.00,29.2,28.3,00.0,38.2,30.9,08.0,0000.0,0006.71,0001.01,0000.35
2021-12-02 13:06:00,,0828.3,5.00,0.00,29.2,28.3,00.0,38.2,30.9,07.9,0000.0,0006.26,0000.97,0000.35
2021-12-02 13:07:00,,0828.3,5.00,0.00,29.2,28.2,00.0,38.2,30.9,07.9,0000.0,0005.94,0000.96,0000.34
2021-12-02 13:08:00,,0828.3,4.99,0.00,29.2,28.2,00.0,38.2,30.9,07.8,0000.0,0005.92,0000.97,0000.34
2021-12-02 13:09:00,,0828.3,5.01,0.00,29.2,28.2,00.0,38.2,30.9,07.8,0000.0,0005.81,0000.93,0000.33
2021-12-02 13:10:00,,0828.2,5.00,0.00,29.2,28.2,00.0,38.2,30.9,07.8,0000.0,0005.77,0000.91,0000.33
2021-12-02 13:11:00,,0828.3,5.00,0.00,29.2,28.2,00.0,38.2,30.9,07.8,0000.0,0005.79,0000.90,0000.32
2021-12-02 13:12:00,,0828.2,4.99,0.00,29.2,28.2,00.0,38.2,30.9,07.8,0000.0,0004.80,0000.90,0000.32
2021-12-02 13:13:00,,0828.3,5.01,0.00,29.2,28.2,00.0,38.2,30.9,07.8,0000.0,0003.62,0000.84,0000.32
2021-12-02 13:14:00,,0828.3,4.99,0.00,29.1,28.2,00.0,38.2,30.9,07.8,0000.0,0002.92,0000.82,0000.31
2021-12-02 13:15:00,,0828.3,5.00,0.00,29.1,28.2,00.0,38.2,30.8,07.8,0000.0,0002.34,0000.77,0000.31
2021-12-02 13:16:00,,0828.3,4.98,0.00,29.1,28.2,00.0,38.2,30.9,07.8,0000.0,0001.75,0000.75,0000.30
2021-12-02 13:17:00,,0828.4,5.01,0.00,29.1,28.2,00.0,38.2,30.8,07.8,0000.0,0001.62,0000.75,0000.29
2021-12-02 13:18:00,,0828.3,5.00,0.00,29.1,28.2,00.0,38.2,30.9,07.8,0000.0,0001.51,0000.72,0000.29
2021-12-02 13:19:00,,0828.4,4.99,0.00,29.1,28.2,00.0,38.2,30.9,07.8,0000.0,0001.38,0000.67,0000.29
2021-12-02 13:20:00,,0828.4,5.01,0.00,29.1,28.2,00.0,38.2,30.9,07.8,0000.0,0001.34,0000.66,0000.28
2021-12-02 13:21:00,,0828.3,4.99,0.00,29.1,28.2,00.0,38.1,30.8,07.8,0000.0,0001.35,0000.67,0000.28
2021-12-02 13:22:00,,0828.4,5.01,0.00,29.1,28.2,00.0,38.1,30.9,07.8,0000.0,0001.23,0000.64,0000.28
2021-12-02 13:23:00,,0828.4,5.00,0.00,29.1,28.2,00.0,38.1,30.9,07.8,0000.0,0001.22,0000.62,0000.27
2021-12-02 13:24:00,,0828.3,4.99,0.00,29.1,28.2,00.0,38.1,30.8,07.8,0000.0,0001.18,0000.59,0000.27
2021-12-02 13:25:00,,0828.3,4.99,0.00,29.1,28.2,00.0,38.1,30.8,07.9,0000.0,0001.26,0000.62,0000.27
2021-12-02 13:26:00,,0828.3,5.02,0.00,29.1,28.1,00.0,38.1,30.9,07.8,0000.0,0001.42,0000.66,0000.27
2021-12-02 13:27:00,,0828.3,4.99,0.00,29.1,28.1,00.0,38.1,30.8,07.8,0000.0,0002.19,0000.64,0000.27
2021-12-02 13:28:00,,0828.4,5.00,0.00,29.1,28.1,00.0,38.1,30.8,07.8,0000.0,0002.89,0000.62,0000.27
2021-12-02 13:29:00,,0828.4,5.01,0.00,29.1,28.2,00.0,38.1,30.8,07.8,0000.0,0002.92,0000.61,0000.26
2021-12-02 13:30:00,,0828.3,5.00,0.00,29.1,28.1,00.0,38.1,30.8,07.8,0000.0,0002.98,0000.63,0000.26
2021-12-02 13:31:00,,0828.3,5.00,0.00,29.1,28.1,00.0,38.1,30.8,07.8,0000.0,0003.76,0000.63,0000.26
2021-12-02 13:32:00,,0828.3,4.99,0.00,29.1,28.1,00.0,38.1,30.8,07.7,0000.0,0003.97,0000.62,0000.26
2021-12-02 13:33:00,,0828.3,5.00,0.00,29.1,28.1,00.0,38.1,30.8,07.6,0000.0,0004.05,0000.62,0000.26
2021-12-02 13:34:00,,0828.3,5.01,0.00,29.1,28.1,00.0,38.1,30.8,07.6,0000.0,0004.12,0000.64,0000.26
2021-12-02 13:35:00,,0828.4,5.01,0.00,29.1,28.1,00.0,38.1,30.7,07.5,0000.0,0004.22,0000.67,0000.26
2021-12-02 13:36:00,,0828.3,5.01,0.00,29.1,28.1,00.0,38.1,30.8,07.5,0000.0,0004.25,0000.68,0000.26
2021-12-02 13:37:00,,0828.4,4.99,0.00,29.1,28.1,00.0,38.1,30.8,07.6,0000.0,0004.32,0000.70,0000.26
2021-12-02 13:38:00,,0828.5,5.01,0.00,29.1,28.1,00.0,38.1,30.8,07.6,0000.0,0003.56,0000.70,0000.25
2021-12-02 13:39:00,,0828.5,5.01,0.00,29.1,28.1,00.0,38.1,30.8,07.6,0000.0,0002.95,0000.72,0000.25
2021-12-02 13:40:00,,0828.5,5.00,0.00,29.1,28.1,00.0,38.1,30.8,07.7,0000.0,0003.02,0000.75,0000.27
2021-12-02 13:41:00,,0828.5,4.99,0.00,29.1,28.1,00.0,38.1,30.8,07.7,0000.0,0002.98,0000.75,0000.27
2021-12-02 13:42:00,,0828.6,5.02,0.00,29.1,28.1,00.0,38.1,30.8,07.7,0000.0,0002.16,0000.74,0000.27
2021-12-02 13:43:00,,0829.0,4.99,0.00,29.1,28.1,00.0,38.1,30.8,07.7,0000.0,0002.08,0000.76,0000.27
2021-12-02 13:44:00,,0828.8,5.00,0.00,29.1,28.1,00.0,38.0,30.8,07.7,0000.0,0001.97,0000.73,0000.27
2021-12-02 13:45:00,,0828.9,5.01,0.00,29.1,28.1,00.0,38.0,30.8,07.7,0000.0,0001.87,0000.69,0000.27
2021-12-02 13:46:00,,0828.8,4.99,0.00,29.0,28.1,00.0,38.0,30.8,07.7,0000.0,0001.87,0000.68,0000.27
2021-12-02 13:47:00,,0829.0,5.01,0.00,29.0,28.0,00.0,38.0,30.7,07.7,0000.0,0001.98,0000.70,0000.26
2021-12-02 13:48:00,,0828.9,5.00,0.00,29.0,28.0,00.0,38.0,30.7,07.7,0000.0,0001.76,0000.65,0000.26
2021-12-02 13:49:00,,0828.8,4.99,0.00,29.0,28.0,00.0,38.0,30.8,07.7,0000.0,0001.69,0000.66,0000.28
2021-12-02 13:50:00,,0829.0,5.01,0.00,29.0,28.0,00.0,38.0,30.7,07.7,0000.0,0001.68,0000.65,0000.27
2021-12-02 13:51:00,,0829.0,5.01,0.00,29.0,28.0,00.0,38.0,30.7,07.6,0000.0,0001.64,0000.61,0000.26
2021-12-02 13:52:00,,0828.9,4.99,0.00,29.0,28.0,00.0,38.0,30.7,07.6,0000.0,0002.69,0000.66,0000.27
2021-12-02 13:53:00,,0828.6,5.01,0.00,29.0,28.0,00.0,38.0,30.7,07.6,0000.0,0004.62,0000.70,0000.28
2021-12-02 13:54:00,,0828.8,5.01,0.00,29.0,28.0,00.0,38.0,30.7,07.6,0000.0,0004.60,0000.68,0000.28
2021-12-02 13:55:00,,0828.9,4.99,0.00,29.0,28.0,00.0,38.0,30.7,07.6,0000.0,0004.88,0000.74,0000.28
2021-12-02 13:56:00,,0828.7,5.00,0.00,29.0,28.0,00.0,38.0,30.7,07.5,0000.0,0005.17,0000.78,0000.28
2021-12-02 13:57:00,,0828.8,4.99,0.00,29.0,28.0,00.0,38.0,30.7,07.5,0000.0,0005.32,0000.80,0000.28
2021-12-02 13:58:00,,0828.6,5.01,0.00,29.0,28.0,00.0,38.0,30.7,07.6,0000.0,0005.35,0000.79,0000.29
2021-12-02 13:59:00,,0828.9,5.00,0.00,29.0,28.0,00.0,38.0,30.7,07.5,0000.0,0006.30,0000.81,0000.28
